Tracking 27112 objects as of 26-Mar-2023
HD Live streaming from Space Station
objects crossing your sky now

OSCAR 29

Track OSCAR 29 now!
10-day predictions
OSCAR 29 is classified as:


NORAD ID: 18362
Int'l Code: 1987-080B
Perigee: 1,022.5 km
Apogee: 1,179.2 km
Inclination: 90.3 °
Period: 107.1 minutes
Semi major axis: 7471 km
RCS: 1.4883 m2 (large)
Launch date: September 16, 1987
Source: United States (US)
Launch site: AIR FORCE WESTERN TEST RANGE (AFWTR)
Your satellite tracking list
Your tracking list is empty




NASA's NSSDC Master Catalog

Two Line Element Set (TLE):
1 18362U 87080B   23084.94421899  .00000141  00000-0  22190-3 0  9999
2 18362  90.3445  44.0104 0104829 207.6086 216.3657 13.44195377741717
Source of the keplerian elements: AFSPC